sat.trackr.live / text

‹ back to catalog

SHIYAN-27 OBJECT B

NORAD 63600 · 2025-078B

PAYLOAD ACTIVE UNKNOWN

§ Identity

Operator
Country
PRC
Launch date
2025-04-18
Launch site
TAISC
Launch vehicle
Mass (kg)
RCS (m²)

External: N2YO · Heavens-Above · Gunter

§ Orbital elements

Epoch: 2026-09-21T23:57:51.054048Z

Period
106.10 min
Inclination
99.6957°
Eccentricity
0.0001106
Mean motion
13.57249341 rev/d
Perigee alt
1,044.9 km
Apogee alt
1,046.5 km
Semi-major
7,423.8 km
B*
6.9353e-5
RAAN
270.7745°
Arg perigee
80.8456°
Mean anomaly
279.2807°
Rev number
7,066

§ Raw data

SHIYAN-27 OBJECT B1 63600U 25078B   26264.99850757  .00000005  00000+0  69353-4 0  99912 63600  99.6957 270.7745 0001106  80.8456 279.2807 13.57249341 70666

JSON: /api/v1/satellites/63600 · /tle

For live sub-satellite position, see the globe view (requires WebGL).

§ Visibility from observer

Set your observer location to see the next 7 days of passes ≥ 10°. The values pass through the URL so the page stays shareable.

No JS? Fill the form by hand. The geolocation button needs JavaScript.